Location: Unnamed
(48.2382°N, 16.3826°E)
Time: 09:16:46
(UTC+02:00)

Falcon 9 debris - Pass Details

Date: 23 August 2020
Orbit: 426 x 434 km, 53.0° (Epoch: 23 September)

Event Time Altitude Azimuth Distance (km) Brightness Sun altitude
Rises 22:19:50 0° 292° (WNW) 2,412 ? -21.3°
Reaches altitude 10° 22:22:07 10° 281° (WNW) 1,542 ? -21.5°
Enters shadow 22:24:31 27° 241° (WSW) 873 ? -21.8°
